Location: Bremen
(53.0793°N, 8.8017°E)
Time: 21:23:47
(UTC+01:00)

Tiros 1 - Pass Details

Date: 12 December 2021
Orbit: 629 x 664 km, 48.4° (Epoch: 18 January)

Event Time Altitude Azimuth Distance (km) Brightness Sun altitude
Rises 19:49:33 0° 271° (W) 2,926 11.7 -31.8°
Reaches altitude 10° 19:51:59 10° 264° (W) 2,021 10.5 -32.2°
Enters shadow 19:54:21 26° 244° (WSW) 1,252 9.0 -32.5°
